Location: Alafon
(8.4500°N, 4.2333°E)
Time: 18:00:28
(UTC+00:00)

deb Explorer IX - Pass Details

Date: 29 July 2021
Orbit: 545 x 1091 km, 38.8° (Epoch: 20 September)

Event Time Altitude Azimuth Distance (km) Brightness Sun altitude
Rises 20:22:41 0° 318° (NW) 3,809 ? -32.3°
Reaches altitude 10° 20:25:26 10° 323° (NW) 2,893 ? -32.9°
Enters shadow 20:31:17 49° 7° (N) 1,370 ? -34.2°
Maximum altitude 20:32:26 54° 39° (NE) 1,299 - -34.4°
Drops below altitude 10° 20:39:24 10° 115° (ESE) 2,879 - -35.9°
Sets 20:42:07 0° 119° (ESE) 3,789 - -36.5°
